Time,TemperatureF,DewpointF,PressureIn,WindDirection,WindDirectionDegrees,WindSpeedMPH,WindSpeedGustMPH,Humidity,HourlyPrecipIn,Conditions,Clouds,dailyrainin,SoftwareType,DateUTC
2013-02-20 00:12:00,22.5,19.0,29.75,WSW,253,17.0,-999.0,87,-99.99,,,0.00,weatherlink.com 1.10,2013-02-20 05:12:00,
2013-02-20 00:27:00,22.4,19.0,29.75,West,265,16.0,-999.0,86,-99.99,,,0.00,weatherlink.com 1.10,2013-02-20 05:27:00,
2013-02-20 00:42:00,22.5,19.0,29.75,WSW,252,18.0,-999.0,86,-99.99,,,0.00,weatherlink.com 1.10,2013-02-20 05:42:00,
2013-02-20 00:57:00,22.5,19.0,29.75,West,259,8.0,-999.0,87,-99.99,,,0.00,weatherlink.com 1.10,2013-02-20 05:57:00,
2013-02-20 01:12:00,22.6,19.0,29.76,WSW,246,9.0,-999.0,87,-99.99,,,0.00,weatherlink.com 1.10,2013-02-20 06:12:00,
2013-02-20 01:27:00,22.4,19.0,29.76,WSW,251,15.0,-999.0,87,-99.99,,,0.00,weatherlink.com 1.10,2013-02-20 06:27:00,
2013-02-20 01:43:00,22.2,18.0,29.77,WSW,248,12.0,-999.0,85,-99.99,,,0.00,weatherlink.com 1.10,2013-02-20 06:43:00,
2013-02-20 01:58:00,22.3,18.0,29.77,SW,219,13.0,-999.0,83,-99.99,,,0.00,weatherlink.com 1.10,2013-02-20 06:58:00,
2013-02-20 02:13:00,22.2,18.0,29.77,West,270,13.0,-999.0,83,-99.99,,,0.00,weatherlink.com 1.10,2013-02-20 07:13:00,
2013-02-20 02:28:00,22.1,17.0,29.78,WSW,249,20.0,-999.0,81,-99.99,,,0.00,weatherlink.com 1.10,2013-02-20 07:28:00,
2013-02-20 02:43:00,21.8,17.0,29.77,WSW,257,14.0,-999.0,80,-99.99,,,0.00,weatherlink.com 1.10,2013-02-20 07:43:00,
2013-02-20 02:58:00,21.6,17.0,29.78,West,264,11.0,-999.0,81,-99.99,,,0.00,weatherlink.com 1.10,2013-02-20 07:58:00,
2013-02-20 03:13:00,21.2,17.0,29.78,WSW,242,14.0,-999.0,83,-99.99,,,0.00,weatherlink.com 1.10,2013-02-20 08:13:00,
2013-02-20 03:28:00,21.1,16.0,29.78,West,266,17.0,-999.0,81,-99.99,,,0.00,weatherlink.com 1.10,2013-02-20 08:28:00,
2013-02-20 03:43:00,21.0,15.0,29.79,West,263,21.0,-999.0,76,-99.99,,,0.00,weatherlink.com 1.10,2013-02-20 08:43:00,
2013-02-20 03:58:00,20.9,15.0,29.79,West,263,14.0,-999.0,77,-99.99,,,0.00,weatherlink.com 1.10,2013-02-20 08:58:00,
2013-02-20 04:13:00,20.6,14.0,29.79,West,269,16.0,-999.0,76,-99.99,,,0.00,weatherlink.com 1.10,2013-02-20 09:13:00,
2013-02-20 04:28:00,20.1,15.0,29.79,WSW,258,16.0,-999.0,79,-99.99,,,0.00,weatherlink.com 1.10,2013-02-20 09:28:00,
2013-02-20 04:43:00,19.8,15.0,29.80,WSW,246,14.0,-999.0,82,-99.99,,,0.00,weatherlink.com 1.10,2013-02-20 09:43:00,
2013-02-20 04:58:00,19.2,15.0,29.80,West,259,13.0,-999.0,85,-99.99,,,0.00,weatherlink.com 1.10,2013-02-20 09:58:00,
2013-02-20 05:13:00,19.1,15.0,29.80,WSW,242,20.0,-999.0,85,-99.99,,,0.00,weatherlink.com 1.10,2013-02-20 10:13:00,
2013-02-20 05:28:00,19.0,15.0,29.81,WSW,238,17.0,-999.0,84,-99.99,,,0.00,weatherlink.com 1.10,2013-02-20 10:28:00,
2013-02-20 05:43:00,18.8,15.0,29.81,West,272,13.0,-999.0,84,-99.99,,,0.00,weatherlink.com 1.10,2013-02-20 10:43:00,
2013-02-20 05:58:00,18.7,15.0,29.81,SW,226,12.0,-999.0,85,-99.99,,,0.00,weatherlink.com 1.10,2013-02-20 10:58:00,
2013-02-20 06:13:00,18.6,15.0,29.82,West,281,14.0,-999.0,86,-99.99,,,0.00,weatherlink.com 1.10,2013-02-20 11:13:00,
2013-02-20 06:28:00,18.4,15.0,29.82,West,275,13.0,-999.0,86,-99.99,,,0.00,weatherlink.com 1.10,2013-02-20 11:28:00,
2013-02-20 06:43:00,18.3,15.0,29.82,WSW,252,18.0,-999.0,86,-99.99,,,0.00,weatherlink.com 1.10,2013-02-20 11:43:00,
2013-02-20 06:58:00,18.4,15.0,29.83,WSW,254,16.0,-999.0,86,-99.99,,,0.00,weatherlink.com 1.10,2013-02-20 11:58:00,
2013-02-20 07:13:00,18.3,15.0,29.84,West,271,18.0,-999.0,85,-99.99,,,0.00,weatherlink.com 1.10,2013-02-20 12:13:00,
2013-02-20 07:28:00,18.4,15.0,29.84,West,261,16.0,-999.0,85,-99.99,,,0.00,weatherlink.com 1.10,2013-02-20 12:28:00,
2013-02-20 07:43:00,18.6,15.0,29.84,WSW,251,17.0,-999.0,85,-99.99,,,0.00,weatherlink.com 1.10,2013-02-20 12:43:00,
2013-02-20 07:58:00,18.5,15.0,29.84,WSW,246,15.0,-999.0,84,-99.99,,,0.00,weatherlink.com 1.10,2013-02-20 12:58:00,
2013-02-20 08:13:00,18.5,14.0,29.85,WSW,253,15.0,-999.0,81,-99.99,,,0.00,weatherlink.com 1.10,2013-02-20 13:13:00,
2013-02-20 08:28:00,18.5,13.0,29.85,West,261,18.0,-999.0,80,-99.99,,,0.00,weatherlink.com 1.10,2013-02-20 13:28:00,
2013-02-20 08:43:00,18.6,13.0,29.86,West,271,13.0,-999.0,79,-99.99,,,0.00,weatherlink.com 1.10,2013-02-20 13:43:00,
2013-02-20 08:58:00,18.8,13.0,29.85,West,263,20.0,-999.0,78,-99.99,,,0.00,weatherlink.com 1.10,2013-02-20 13:58:00,
2013-02-20 09:14:00,19.0,13.0,29.86,West,265,19.0,-999.0,77,-99.99,,,0.00,weatherlink.com 1.10,2013-02-20 14:14:00,
2013-02-20 09:29:00,19.2,13.0,29.86,West,277,20.0,-999.0,76,-99.99,,,0.00,weatherlink.com 1.10,2013-02-20 14:29:00,
2013-02-20 09:44:00,19.1,13.0,29.86,West,260,21.0,-999.0,76,-99.99,,,0.00,weatherlink.com 1.10,2013-02-20 14:44:00,
2013-02-20 09:59:00,19.2,13.0,29.86,West,279,24.0,-999.0,75,-99.99,,,0.00,weatherlink.com 1.10,2013-02-20 14:59:00,
2013-02-20 10:14:00,19.5,13.0,29.87,WSW,252,24.0,-999.0,75,-99.99,,,0.00,weatherlink.com 1.10,2013-02-20 15:14:00,
2013-02-20 10:29:00,19.4,13.0,29.87,West,269,19.0,-999.0,75,-99.99,,,0.00,weatherlink.com 1.10,2013-02-20 15:29:00,
2013-02-20 10:44:00,19.8,13.0,29.88,West,265,23.0,-999.0,76,-99.99,,,0.00,weatherlink.com 1.10,2013-02-20 15:44:00,
2013-02-20 10:59:00,19.7,14.0,29.88,West,271,17.0,-999.0,77,-99.99,,,0.00,weatherlink.com 1.10,2013-02-20 15:59:00,
2013-02-20 11:14:00,19.7,13.0,29.88,WSW,257,22.0,-999.0,76,-99.99,,,0.00,weatherlink.com 1.10,2013-02-20 16:14:00,
2013-02-20 11:29:00,20.2,14.0,29.89,West,277,16.0,-999.0,76,-99.99,,,0.00,weatherlink.com 1.10,2013-02-20 16:29:00,
2013-02-20 11:44:00,20.1,13.0,29.89,West,271,21.0,-999.0,74,-99.99,,,0.00,weatherlink.com 1.10,2013-02-20 16:44:00,
2013-02-20 11:59:00,20.7,14.0,29.89,WSW,250,13.0,-999.0,74,-99.99,,,0.00,weatherlink.com 1.10,2013-02-20 16:59:00,
2013-02-20 12:14:00,21.3,13.0,29.89,WNW,282,17.0,-999.0,70,-99.99,,,0.00,weatherlink.com 1.10,2013-02-20 17:14:00,
2013-02-20 12:29:00,21.1,13.0,29.89,West,274,17.0,-999.0,72,-99.99,,,0.00,weatherlink.com 1.10,2013-02-20 17:29:00,
2013-02-20 12:44:00,20.4,14.0,29.90,West,270,18.0,-999.0,76,-99.99,,,0.00,weatherlink.com 1.10,2013-02-20 17:44:00,
2013-02-20 12:59:00,20.2,14.0,29.91,West,259,18.0,-999.0,78,-99.99,,,0.00,weatherlink.com 1.10,2013-02-20 17:59:00,
2013-02-20 13:14:00,20.3,14.0,29.92,WSW,246,15.0,-999.0,76,-99.99,,,0.00,weatherlink.com 1.10,2013-02-20 18:14:00,
2013-02-20 13:29:00,20.7,15.0,29.92,West,276,16.0,-999.0,77,-99.99,,,0.00,weatherlink.com 1.10,2013-02-20 18:29:00,
2013-02-20 13:44:00,20.4,15.0,29.92,WSW,237,22.0,-999.0,80,-99.99,,,0.00,weatherlink.com 1.10,2013-02-20 18:44:00,
2013-02-20 13:59:00,21.1,16.0,29.93,WSW,249,22.0,-999.0,80,-99.99,,,0.00,weatherlink.com 1.10,2013-02-20 18:59:00,
2013-02-20 14:14:00,20.3,15.0,29.94,West,259,22.0,-999.0,80,-99.99,,,0.00,weatherlink.com 1.10,2013-02-20 19:14:00,
2013-02-20 14:29:00,20.2,15.0,29.94,West,260,23.0,-999.0,81,-99.99,,,0.00,weatherlink.com 1.10,2013-02-20 19:29:00,
2013-02-20 14:44:00,20.1,15.0,29.95,West,262,19.0,-999.0,82,-99.99,,,0.00,weatherlink.com 1.10,2013-02-20 19:44:00,
2013-02-20 14:59:00,20.4,15.0,29.96,SW,230,19.0,-999.0,78,-99.99,,,0.00,weatherlink.com 1.10,2013-02-20 19:59:00,
2013-02-20 15:14:00,21.0,15.0,29.96,West,267,22.0,-999.0,76,-99.99,,,0.00,weatherlink.com 1.10,2013-02-20 20:14:00,
2013-02-20 15:29:00,21.2,14.0,29.96,WSW,243,14.0,-999.0,75,-99.99,,,0.00,weatherlink.com 1.10,2013-02-20 20:29:00,
2013-02-20 15:44:00,20.9,14.0,29.97,WSW,257,12.0,-999.0,75,-99.99,,,0.00,weatherlink.com 1.10,2013-02-20 20:44:00,
2013-02-20 15:59:00,20.7,14.0,29.98,WSW,251,24.0,-999.0,76,-99.99,,,0.00,weatherlink.com 1.10,2013-02-20 20:59:00,
2013-02-20 16:14:00,20.7,15.0,29.98,WSW,251,20.0,-999.0,77,-99.99,,,0.00,weatherlink.com 1.10,2013-02-20 21:14:00,
2013-02-20 16:29:00,20.4,14.0,29.99,WSW,252,14.0,-999.0,77,-99.99,,,0.00,weatherlink.com 1.10,2013-02-20 21:29:00,
2013-02-20 16:44:00,20.6,14.0,29.99,WSW,250,16.0,-999.0,77,-99.99,,,0.00,weatherlink.com 1.10,2013-02-20 21:44:00,
2013-02-20 16:59:00,20.4,14.0,30.01,WSW,248,17.0,-999.0,77,-99.99,,,0.00,weatherlink.com 1.10,2013-02-20 21:59:00,
2013-02-20 17:14:00,20.4,15.0,30.02,West,277,19.0,-999.0,78,-99.99,,,0.00,weatherlink.com 1.10,2013-02-20 22:14:00,
2013-02-20 17:29:00,20.0,14.0,30.03,West,269,20.0,-999.0,78,-99.99,,,0.00,weatherlink.com 1.10,2013-02-20 22:29:00,
2013-02-20 17:44:00,19.8,14.0,30.01,WSW,249,11.0,-999.0,78,-99.99,,,0.00,weatherlink.com 1.10,2013-02-20 22:44:00,
2013-02-20 17:59:00,19.8,14.0,30.02,West,260,24.0,-999.0,77,-99.99,,,0.00,weatherlink.com 1.10,2013-02-20 22:59:00,
2013-02-20 18:14:00,19.7,14.0,30.02,WSW,239,18.0,-999.0,77,-99.99,,,0.00,weatherlink.com 1.10,2013-02-20 23:14:00,
2013-02-20 18:29:00,19.4,14.0,30.04,WSW,240,10.0,-999.0,78,-99.99,,,0.00,weatherlink.com 1.10,2013-02-20 23:29:00,
2013-02-20 18:44:00,19.3,13.0,30.05,WSW,252,21.0,-999.0,76,-99.99,,,0.00,weatherlink.com 1.10,2013-02-20 23:44:00,
2013-02-20 18:59:00,19.3,13.0,30.05,West,259,19.0,-999.0,75,-99.99,,,0.00,weatherlink.com 1.10,2013-02-20 23:59:00,
2013-02-20 19:14:00,19.1,12.0,30.05,West,263,23.0,-999.0,75,-99.99,,,0.00,weatherlink.com 1.10,2013-02-21 00:14:00,
2013-02-20 19:29:00,19.0,13.0,30.06,West,261,21.0,-999.0,76,-99.99,,,0.00,weatherlink.com 1.10,2013-02-21 00:29:00,
2013-02-20 19:44:00,18.9,13.0,30.06,WSW,246,15.0,-999.0,77,-99.99,,,0.00,weatherlink.com 1.10,2013-02-21 00:44:00,
2013-02-20 19:59:00,18.8,12.0,30.06,West,276,21.0,-999.0,76,-99.99,,,0.00,weatherlink.com 1.10,2013-02-21 00:59:00,
2013-02-20 20:14:00,18.5,12.0,30.06,WSW,250,16.0,-999.0,77,-99.99,,,0.00,weatherlink.com 1.10,2013-02-21 01:14:00,
2013-02-20 20:29:00,18.5,12.0,30.07,West,264,19.0,-999.0,77,-99.99,,,0.00,weatherlink.com 1.10,2013-02-21 01:29:00,
2013-02-20 20:44:00,18.4,12.0,30.08,West,263,17.0,-999.0,77,-99.99,,,0.00,weatherlink.com 1.10,2013-02-21 01:44:00,
2013-02-20 20:59:00,18.3,13.0,30.07,West,259,19.0,-999.0,78,-99.99,,,0.00,weatherlink.com 1.10,2013-02-21 01:59:00,
2013-02-20 21:15:00,18.2,12.0,30.08,WSW,253,23.0,-999.0,77,-99.99,,,0.00,weatherlink.com 1.10,2013-02-21 02:15:00,
2013-02-20 21:30:00,18.0,13.0,30.07,West,260,17.0,-999.0,79,-99.99,,,0.00,weatherlink.com 1.10,2013-02-21 02:30:00,
2013-02-20 21:45:00,18.0,12.0,30.08,West,265,23.0,-999.0,78,-99.99,,,0.00,weatherlink.com 1.10,2013-02-21 02:45:00,
2013-02-20 22:00:00,18.0,12.0,30.08,WSW,254,16.0,-999.0,78,-99.99,,,0.00,weatherlink.com 1.10,2013-02-21 03:00:00,
2013-02-20 22:15:00,18.0,13.0,30.08,WSW,253,15.0,-999.0,79,-99.99,,,0.00,weatherlink.com 1.10,2013-02-21 03:15:00,
2013-02-20 22:30:00,18.0,13.0,30.08,West,273,17.0,-999.0,80,-99.99,,,0.00,weatherlink.com 1.10,2013-02-21 03:30:00,
2013-02-20 22:45:00,17.9,13.0,30.07,West,265,11.0,-999.0,81,-99.99,,,0.00,weatherlink.com 1.10,2013-02-21 03:45:00,
2013-02-20 23:00:00,18.0,13.0,30.07,West,262,13.0,-999.0,82,-99.99,,,0.00,weatherlink.com 1.10,2013-02-21 04:00:00,
2013-02-20 23:15:00,18.4,14.0,30.06,WSW,244,6.0,-999.0,81,-99.99,,,0.00,weatherlink.com 1.10,2013-02-21 04:15:00,
2013-02-20 23:30:00,18.7,14.0,30.06,West,260,16.0,-999.0,80,-99.99,,,0.00,weatherlink.com 1.10,2013-02-21 04:30:00,
2013-02-20 23:45:00,18.6,13.0,30.06,WSW,247,13.0,-999.0,79,-99.99,,,0.00,weatherlink.com 1.10,2013-02-21 04:45:00,